Location: Follega
(52.8850°N, 5.7362°E)
Time: 20:50:12
(UTC+00:00)

CARTOSAT-1 - Pass Details

Date: 07 October 2020
Orbit: 616 x 619 km, 97.8° (Epoch: 22 October)

Event Time Altitude Azimuth Distance (km) Brightness Sun altitude
Exits shadow 20:57:45 18° 349° (NNW) 1,554 6.1 -34.3°
Drops below altitude 10° 20:58:50 10° 348° (NNW) 1,993 6.7 -34.4°
Sets 21:01:02 0° 347° (NNW) 2,903 7.7 -34.7°
